START_TIME,STEP,MOV.,P11,t_acc.,P23,t_acc.,P27,t_acc.,A4,t_acc.
1979-07-30 21:00:22.110 ,0,0,6.,4.8,0.,4.8,0.,4.8,0.,4.8
1979-07-30 21:00:26.910 ,0,0,7.,4.8,0.,4.8,0.,4.8,0.,4.8
1979-07-30 21:00:31.710 ,0,0,4.,4.8,0.,4.8,0.,4.8,0.,4.8
1979-07-30 21:00:36.510 ,0,0,7.,4.8,0.,4.8,0.,4.8,0.,4.8
1979-07-30 21:00:41.310 ,0,0,1.,4.8,0.,4.8,0.,4.8,0.,4.8
1979-07-30 21:00:46.110 ,0,0,4.,4.8,0.,4.8,0.,4.8,0.,4.8
1979-07-30 21:00:50.910 ,0,0,4.,4.8,0.,4.8,0.,4.8,0.,4.8
1979-07-30 21:00:55.710 ,0,0,8.,4.8,0.,4.8,0.,4.8,0.,4.8
1979-07-30 21:01:00.510 ,0,0,5.,4.8,0.,4.8,0.,4.8,0.,4.8
1979-07-30 21:01:05.310 ,0,0,4.,4.8,0.,4.8,0.,4.8,0.,4.8
1979-07-30 21:01:10.110 ,0,0,4.,4.8,0.,4.8,0.,4.8,0.,4.8
1979-07-30 21:01:14.910 ,0,0,5.,4.8,0.,4.8,1.,4.8,0.,4.8
1979-07-30 21:01:19.710 ,0,0,5.,4.8,0.,4.8,0.,4.8,0.,4.8
1979-07-30 21:01:24.510 ,0,0,5.,4.8,0.,4.8,1.,4.8,0.,4.8
1979-07-30 21:01:29.310 ,0,0,7.,4.8,0.,4.8,0.,4.8,0.,4.8
1979-07-30 21:01:34.110 ,1,0,3.,4.8,0.,4.8,0.,4.8,0.,4.8
1979-07-30 21:01:38.910 ,1,0,10.,4.8,0.,4.8,0.,4.8,0.,4.8
1979-07-30 21:01:43.710 ,1,0,5.,4.8,1.,4.8,0.,4.8,0.,4.8
1979-07-30 21:01:48.510 ,1,0,5.,4.8,0.,4.8,0.,4.8,0.,4.8
1979-07-30 21:01:53.310 ,1,0,6.,4.8,0.,4.8,0.,4.8,0.,4.8
1979-07-30 21:01:58.110 ,1,0,4.,4.8,0.,4.8,1.,4.8,0.,4.8
1979-07-30 21:02:02.910 ,1,0,4.,4.8,0.,4.8,1.,4.8,0.,4.8
1979-07-30 21:02:07.710 ,1,0,9.,4.8,0.,4.8,0.,4.8,0.,4.8
1979-07-30 21:02:12.510 ,1,0,2.,4.8,0.,4.8,0.,4.8,0.,4.8
1979-07-30 21:02:17.310 ,1,0,2.,4.8,0.,4.8,0.,4.8,0.,4.8
1979-07-30 21:02:22.110 ,2,0,5.,4.8,0.,4.8,0.,4.8,0.,4.8
1979-07-30 21:02:26.910 ,2,0,7.,4.8,0.,4.8,1.,4.8,0.,4.8
1979-07-30 21:02:31.710 ,2,0,11.,4.8,0.,4.8,1.,4.8,0.,4.8
1979-07-30 21:02:36.510 ,2,0,3.,4.8,0.,4.8,0.,4.8,0.,4.8
1979-07-30 21:02:41.310 ,2,0,1.,4.8,0.,4.8,0.,4.8,0.,4.8
1979-07-30 21:02:46.110 ,2,0,5.,4.8,0.,4.8,0.,4.8,0.,4.8
1979-07-30 21:02:50.910 ,2,0,9.,4.8,0.,4.8,0.,4.8,0.,4.8
1979-07-30 21:02:55.710 ,2,0,3.,4.8,0.,4.8,0.,4.8,0.,4.8
1979-07-30 21:03:00.510 ,2,0,2.,4.8,0.,4.8,0.,4.8,0.,4.8
1979-07-30 21:03:05.310 ,2,0,11.,4.8,0.,4.8,0.,4.8,0.,4.8
1979-07-30 21:03:10.110 ,3,0,4.,4.8,0.,4.8,1.,4.8,0.,4.8
1979-07-30 21:03:14.910 ,3,0,7.,4.8,0.,4.8,0.,4.8,0.,4.8
1979-07-30 21:03:19.710 ,3,0,4.,4.8,0.,4.8,0.,4.8,0.,4.8
1979-07-30 21:03:24.510 ,3,0,9.,4.8,0.,4.8,0.,4.8,0.,4.8
1979-07-30 21:03:29.310 ,3,0,6.,4.8,0.,4.8,0.,4.8,0.,4.8
1979-07-30 21:03:34.110 ,3,0,7.,4.8,0.,4.8,0.,4.8,0.,4.8
1979-07-30 21:03:38.910 ,3,0,5.,4.8,0.,4.8,0.,4.8,0.,4.8
1979-07-30 21:03:43.710 ,3,0,4.,4.8,0.,4.8,0.,4.8,0.,4.8
1979-07-30 21:03:48.510 ,3,0,0.,4.8,0.,4.8,0.,4.8,0.,4.8
1979-07-30 21:03:53.310 ,3,0,10.,4.8,0.,4.8,0.,4.8,0.,4.8
1979-07-30 21:03:58.110 ,4,0,5.,4.8,0.,4.8,0.,4.8,0.,4.8
1979-07-30 21:04:02.910 ,4,0,5.,4.8,0.,4.8,0.,4.8,0.,4.8
1979-07-30 21:04:07.710 ,4,0,4.,4.8,0.,4.8,0.,4.8,0.,4.8
1979-07-30 21:04:12.510 ,4,0,7.,4.8,0.,4.8,0.,4.8,0.,4.8
1979-07-30 21:04:17.310 ,4,0,8.,4.8,0.,4.8,0.,4.8,0.,4.8
1979-07-30 21:04:22.110 ,4,0,4.,4.8,0.,4.8,0.,4.8,0.,4.8
1979-07-30 21:04:26.910 ,4,0,7.,4.8,0.,4.8,0.,4.8,0.,4.8
1979-07-30 21:04:31.710 ,4,0,4.,4.8,0.,4.8,0.,4.8,0.,4.8
1979-07-30 21:04:36.510 ,4,0,3.,4.8,0.,4.8,0.,4.8,0.,4.8
1979-07-30 21:04:41.310 ,4,0,6.,4.8,0.,4.8,0.,4.8,0.,4.8
1979-07-30 21:04:46.110 ,0,0,7.,4.8,0.,4.8,0.,4.8,0.,4.8
1979-07-30 21:04:50.910 ,0,0,7.,4.8,0.,4.8,0.,4.8,0.,4.8
1979-07-30 21:04:55.710 ,0,0,,0,,0,,0,,0
1979-07-30 21:05:00.510 ,0,0,,0,,0,,0,,0
1979-07-30 21:05:05.310 ,0,0,,0,,0,,0,,0
1979-07-30 21:05:10.110 ,0,0,,0,,0,,0,,0
1979-07-30 21:05:14.910 ,0,0,,0,,0,,0,,0
1979-07-30 21:05:19.710 ,0,0,,0,,0,,0,,0
1979-07-30 21:05:24.510 ,0,0,,0,,0,,0,,0
1979-07-30 21:05:29.310 ,0,0,,0,,0,,0,,0
1979-07-30 21:07:43.710 ,0,0,,0,,0,,0,,0
1979-07-30 21:07:48.510 ,0,0,,0,,0,,0,,0
1979-07-30 21:07:53.310 ,0,0,6.,4.8,0.,4.8,0.,4.8,0.,4.8
1979-07-30 21:07:58.110 ,0,0,5.,4.8,0.,4.8,0.,4.8,0.,4.8
1979-07-30 21:08:02.910 ,0,0,2.,4.8,0.,4.8,0.,4.8,0.,4.8
1979-07-30 21:07:58.110 ,4,1,9.,4.8,0.,4.8,0.,4.8,0.,4.8
1979-07-30 21:08:02.910 ,4,1,6.,4.8,0.,4.8,0.,4.8,0.,4.8
1979-07-30 21:08:07.710 ,4,1,5.,4.8,0.,4.8,0.,4.8,0.,4.8
1979-07-30 21:08:12.510 ,4,1,9.,4.8,0.,4.8,1.,4.8,0.,4.8
1979-07-30 21:08:17.310 ,4,1,8.,4.8,0.,4.8,0.,4.8,0.,4.8
1979-07-30 21:08:22.110 ,7,1,8.,4.8,0.,4.8,0.,4.8,0.,4.8
1979-07-30 21:08:26.910 ,7,1,8.,4.8,0.,4.8,0.,4.8,0.,4.8
1979-07-30 21:08:31.710 ,7,1,1.,4.8,0.,4.8,0.,4.8,0.,4.8
1979-07-30 21:08:36.510 ,7,1,6.,4.8,0.,4.8,0.,4.8,0.,4.8
1979-07-30 21:08:41.310 ,7,1,3.,4.8,0.,4.8,0.,4.8,0.,4.8
1979-07-30 21:08:46.110 ,3,1,2.,4.8,0.,4.8,0.,4.8,0.,4.8
1979-07-30 21:08:50.910 ,3,1,8.,4.8,0.,4.8,0.,4.8,0.,4.8
1979-07-30 21:08:55.710 ,3,1,4.,4.8,0.,4.8,0.,4.8,0.,4.8
1979-07-30 21:09:00.510 ,3,1,8.,4.8,0.,4.8,0.,4.8,0.,4.8
1979-07-30 21:09:05.310 ,3,1,1.,4.8,0.,4.8,0.,4.8,0.,4.8
1979-07-30 21:09:10.110 ,0,1,1.,4.8,0.,4.8,0.,4.8,0.,4.8
1979-07-30 21:09:14.910 ,0,1,5.,4.8,0.,4.8,0.,4.8,0.,4.8
1979-07-30 21:09:19.710 ,0,1,6.,4.8,0.,4.8,0.,4.8,0.,4.8
1979-07-30 21:09:24.510 ,0,1,6.,4.8,0.,4.8,0.,4.8,0.,4.8
1979-07-30 21:09:29.310 ,0,1,6.,4.8,1.,4.8,0.,4.8,1.,4.8
1979-07-30 21:09:34.110 ,4,1,5.,4.8,0.,4.8,0.,4.8,0.,4.8
1979-07-30 21:09:38.910 ,4,1,3.,4.8,1.,4.8,1.,4.8,0.,4.8
1979-07-30 21:09:43.710 ,4,1,8.,4.8,0.,4.8,0.,4.8,0.,4.8
1979-07-30 21:09:48.510 ,4,1,12.,4.8,0.,4.8,0.,4.8,0.,4.8
1979-07-30 21:09:53.310 ,4,1,6.,4.8,0.,4.8,0.,4.8,0.,4.8
1979-07-30 21:09:58.110 ,7,1,9.,4.8,0.,4.8,0.,4.8,0.,4.8
1979-07-30 21:10:02.910 ,7,1,4.,4.8,0.,4.8,0.,4.8,0.,4.8
1979-07-30 21:10:07.710 ,7,1,6.,4.8,0.,4.8,0.,4.8,0.,4.8
1979-07-30 21:10:12.510 ,7,1,5.,4.8,0.,4.8,0.,4.8,0.,4.8
1979-07-30 21:10:17.310 ,7,1,7.,4.8,0.,4.8,0.,4.8,0.,4.8
1979-07-30 21:10:22.110 ,3,1,5.,4.8,0.,4.8,1.,4.8,0.,4.8
1979-07-30 21:10:26.910 ,3,1,1.,4.8,0.,4.8,0.,4.8,0.,4.8
1979-07-30 21:10:31.710 ,3,1,10.,4.8,0.,4.8,0.,4.8,0.,4.8
1979-07-30 21:10:36.510 ,3,1,7.,4.8,0.,4.8,0.,4.8,0.,4.8
1979-07-30 21:10:41.310 ,3,1,2.,4.8,0.,4.8,0.,4.8,0.,4.8
1979-07-30 21:10:46.110 ,0,1,3.,4.8,0.,4.8,0.,4.8,0.,4.8
1979-07-30 21:10:50.910 ,0,1,3.,4.8,0.,4.8,0.,4.8,0.,4.8
1979-07-30 21:10:55.710 ,0,1,3.,4.8,0.,4.8,0.,4.8,0.,4.8
1979-07-30 21:11:00.510 ,0,1,5.,4.8,1.,4.8,0.,4.8,0.,4.8
1979-07-30 21:11:05.310 ,0,1,5.,4.8,0.,4.8,0.,4.8,0.,4.8
1979-07-30 21:11:10.110 ,4,1,5.,4.8,0.,4.8,0.,4.8,0.,4.8
1979-07-30 21:11:14.910 ,4,1,9.,4.8,0.,4.8,1.,4.8,0.,4.8
1979-07-30 21:11:19.710 ,4,1,2.,4.8,0.,4.8,0.,4.8,0.,4.8
1979-07-30 21:11:24.510 ,4,1,7.,4.8,1.,4.8,0.,4.8,0.,4.8
1979-07-30 21:11:29.310 ,4,1,6.,4.8,0.,4.8,0.,4.8,0.,4.8
1979-07-30 21:11:34.110 ,7,1,5.,4.8,0.,4.8,0.,4.8,0.,4.8
1979-07-30 21:11:38.910 ,7,1,1.,4.8,0.,4.8,0.,4.8,0.,4.8
1979-07-30 21:11:43.710 ,7,1,6.,4.8,0.,4.8,0.,4.8,0.,4.8
1979-07-30 21:11:48.510 ,7,1,1.,4.8,0.,4.8,0.,4.8,0.,4.8
1979-07-30 21:11:53.310 ,7,1,3.,4.8,0.,4.8,0.,4.8,0.,4.8
1979-07-30 21:11:58.110 ,3,1,2.,4.8,0.,4.8,0.,4.8,0.,4.8
1979-07-30 21:12:02.910 ,3,1,4.,4.8,0.,4.8,0.,4.8,0.,4.8
1979-07-30 21:12:07.710 ,3,1,9.,4.8,0.,4.8,0.,4.8,0.,4.8
1979-07-30 21:12:12.510 ,3,1,4.,4.8,0.,4.8,0.,4.8,0.,4.8
1979-07-30 21:12:17.310 ,3,1,6.,4.8,0.,4.8,0.,4.8,0.,4.8
1979-07-30 21:12:22.110 ,0,1,10.,4.8,0.,4.8,1.,4.8,0.,4.8
1979-07-30 21:12:26.910 ,0,1,7.,4.8,0.,4.8,0.,4.8,0.,4.8
1979-07-30 21:12:31.710 ,0,1,4.,4.8,0.,4.8,0.,4.8,0.,4.8
1979-07-30 21:12:36.510 ,0,1,4.,4.8,0.,4.8,0.,4.8,0.,4.8
1979-07-30 21:12:41.310 ,0,1,8.,4.8,0.,4.8,0.,4.8,0.,4.8
1979-07-30 21:12:46.110 ,4,1,8.,4.8,0.,4.8,0.,4.8,0.,4.8
1979-07-30 21:12:50.910 ,4,1,5.,4.8,0.,4.8,0.,4.8,0.,4.8
1979-07-30 21:12:55.710 ,4,1,3.,4.8,0.,4.8,0.,4.8,0.,4.8
1979-07-30 21:13:00.510 ,4,1,7.,4.8,0.,4.8,0.,4.8,0.,4.8
1979-07-30 21:13:05.310 ,4,1,2.,4.8,0.,4.8,0.,4.8,0.,4.8
1979-07-30 21:13:10.110 ,7,1,8.,4.8,0.,4.8,1.,4.8,0.,4.8
1979-07-30 21:13:14.910 ,7,1,5.,4.8,0.,4.8,1.,4.8,0.,4.8
1979-07-30 21:13:19.710 ,7,1,6.,4.8,0.,4.8,0.,4.8,0.,4.8
1979-07-30 21:13:24.510 ,7,1,5.,4.8,0.,4.8,0.,4.8,0.,4.8
1979-07-30 21:13:29.310 ,7,1,6.,4.8,0.,4.8,0.,4.8,0.,4.8
1979-07-30 21:13:34.110 ,3,1,6.,4.8,0.,4.8,0.,4.8,0.,4.8
1979-07-30 21:13:38.910 ,3,1,8.,4.8,0.,4.8,0.,4.8,0.,4.8
1979-07-30 21:13:43.710 ,3,1,1.,4.8,0.,4.8,0.,4.8,0.,4.8
1979-07-30 21:13:48.510 ,3,1,4.,4.8,1.,4.8,0.,4.8,0.,4.8
1979-07-30 21:13:53.310 ,3,1,9.,4.8,0.,4.8,2.,4.8,0.,4.8
1979-07-30 21:13:58.110 ,0,1,5.,4.8,0.,4.8,0.,4.8,0.,4.8
1979-07-30 21:14:02.910 ,0,1,1.,4.8,0.,4.8,1.,4.8,0.,4.8
1979-07-30 21:14:07.710 ,0,1,6.,4.8,0.,4.8,0.,4.8,0.,4.8
1979-07-30 21:14:12.510 ,0,1,7.,4.8,0.,4.8,0.,4.8,0.,4.8
1979-07-30 21:14:17.310 ,0,1,9.,4.8,0.,4.8,0.,4.8,0.,4.8
1979-07-30 21:14:22.110 ,4,1,6.,4.8,0.,4.8,1.,4.8,0.,4.8
1979-07-30 21:14:26.910 ,4,1,6.,4.8,0.,4.8,1.,4.8,0.,4.8
1979-07-30 21:14:31.710 ,4,1,6.,4.8,0.,4.8,0.,4.8,0.,4.8
1979-07-30 21:14:36.510 ,4,1,3.,4.8,0.,4.8,0.,4.8,0.,4.8
1979-07-30 21:14:41.310 ,4,1,10.,4.8,0.,4.8,0.,4.8,0.,4.8
1979-07-30 21:14:46.110 ,7,1,3.,4.8,0.,4.8,0.,4.8,0.,4.8
1979-07-30 21:14:50.910 ,7,1,2.,4.8,1.,4.8,0.,4.8,0.,4.8
1979-07-30 21:14:55.710 ,7,1,9.,4.8,0.,4.8,0.,4.8,0.,4.8
1979-07-30 21:15:00.510 ,7,1,7.,4.8,0.,4.8,0.,4.8,0.,4.8
1979-07-30 21:15:05.310 ,7,1,3.,4.8,0.,4.8,0.,4.8,0.,4.8
1979-07-30 21:15:10.110 ,3,1,4.,4.8,0.,4.8,0.,4.8,0.,4.8
1979-07-30 21:15:14.910 ,3,1,2.,4.8,0.,4.8,0.,4.8,0.,4.8
1979-07-30 21:15:19.710 ,3,1,1.,4.8,0.,4.8,0.,4.8,0.,4.8
1979-07-30 21:15:24.510 ,3,1,10.,4.8,0.,4.8,0.,4.8,0.,4.8
1979-07-30 21:15:29.310 ,3,1,7.,4.8,0.,4.8,0.,4.8,0.,4.8
1979-07-30 21:15:34.110 ,0,1,2.,4.8,0.,4.8,0.,4.8,0.,4.8
1979-07-30 21:15:38.910 ,0,1,6.,4.8,0.,4.8,0.,4.8,0.,4.8
1979-07-30 21:15:43.710 ,0,1,10.,4.8,0.,4.8,0.,4.8,0.,4.8
1979-07-30 21:15:48.510 ,0,1,4.,4.8,0.,4.8,1.,4.8,0.,4.8
1979-07-30 21:15:53.310 ,0,1,6.,4.8,0.,4.8,0.,4.8,0.,4.8
1979-07-30 21:15:58.110 ,4,1,8.,4.8,0.,4.8,0.,4.8,0.,4.8
1979-07-30 21:16:02.910 ,4,1,2.,4.8,0.,4.8,0.,4.8,0.,4.8
1979-07-30 21:16:07.710 ,4,1,3.,4.8,0.,4.8,0.,4.8,0.,4.8
1979-07-30 21:16:12.510 ,4,1,6.,4.8,0.,4.8,2.,4.8,0.,4.8
1979-07-30 21:16:17.310 ,4,1,10.,4.8,0.,4.8,0.,4.8,0.,4.8
1979-07-30 21:16:22.110 ,7,1,4.,4.8,0.,4.8,0.,4.8,0.,4.8
1979-07-30 21:16:26.910 ,7,1,8.,4.8,0.,4.8,0.,4.8,0.,4.8
1979-07-30 21:16:31.710 ,7,1,7.,4.8,0.,4.8,0.,4.8,0.,4.8
1979-07-30 21:16:36.510 ,7,1,3.,4.8,0.,4.8,0.,4.8,0.,4.8
1979-07-30 21:16:41.310 ,7,1,1.,4.8,0.,4.8,0.,4.8,0.,4.8
1979-07-30 21:16:46.110 ,3,1,3.,4.8,0.,4.8,0.,4.8,0.,4.8
1979-07-30 21:16:50.910 ,3,1,3.,4.8,0.,4.8,0.,4.8,0.,4.8
1979-07-30 21:16:55.710 ,3,1,6.,4.8,0.,4.8,0.,4.8,0.,4.8
1979-07-30 21:17:00.510 ,3,1,10.,4.8,1.,4.8,0.,4.8,0.,4.8
1979-07-30 21:17:05.310 ,3,1,8.,4.8,0.,4.8,0.,4.8,0.,4.8
1979-07-30 21:17:10.110 ,0,1,4.,4.8,0.,4.8,0.,4.8,0.,4.8
1979-07-30 21:17:14.910 ,0,1,4.,4.8,0.,4.8,0.,4.8,0.,4.8
1979-07-30 21:17:19.710 ,0,1,8.,4.8,0.,4.8,0.,4.8,0.,4.8
1979-07-30 21:17:24.510 ,0,1,2.,4.8,0.,4.8,0.,4.8,0.,4.8
1979-07-30 21:17:29.310 ,0,1,3.,4.8,0.,4.8,0.,4.8,0.,4.8
1979-07-30 21:17:34.110 ,0,0,2.,4.8,0.,4.8,0.,4.8,0.,4.8
1979-07-30 21:17:38.910 ,0,0,4.,4.8,0.,4.8,0.,4.8,0.,4.8
1979-07-30 21:17:43.710 ,0,0,6.,4.8,0.,4.8,0.,4.8,0.,4.8
1979-07-30 21:17:48.510 ,0,0,4.,4.8,0.,4.8,0.,4.8,0.,4.8
1979-07-30 21:17:53.310 ,0,0,11.,4.8,0.,4.8,0.,4.8,0.,4.8
1979-07-30 21:17:58.110 ,0,0,7.,4.8,0.,4.8,0.,4.8,0.,4.8
1979-07-30 21:18:02.910 ,0,0,6.,4.8,1.,4.8,0.,4.8,0.,4.8
1979-07-30 21:18:07.710 ,0,0,4.,4.8,0.,4.8,0.,4.8,0.,4.8
1979-07-30 21:18:12.510 ,0,0,1.,4.8,0.,4.8,0.,4.8,0.,4.8
1979-07-30 21:18:17.310 ,0,0,1.,4.8,0.,4.8,1.,4.8,0.,4.8
1979-07-30 21:18:22.110 ,5,0,1.,4.8,0.,4.8,0.,4.8,0.,4.8
1979-07-30 21:18:26.910 ,5,0,3.,4.8,0.,4.8,0.,4.8,0.,4.8
1979-07-30 21:18:31.710 ,5,0,3.,4.8,0.,4.8,0.,4.8,0.,4.8
1979-07-30 21:18:36.510 ,5,0,4.,4.8,0.,4.8,1.,4.8,0.,4.8
1979-07-30 21:18:41.310 ,5,0,4.,4.8,0.,4.8,0.,4.8,0.,4.8
1979-07-30 21:18:46.110 ,5,0,3.,4.8,0.,4.8,0.,4.8,0.,4.8
1979-07-30 21:18:50.910 ,5,0,3.,4.8,0.,4.8,0.,4.8,0.,4.8
1979-07-30 21:18:55.710 ,5,0,9.,4.8,0.,4.8,0.,4.8,0.,4.8
1979-07-30 21:19:00.510 ,5,0,7.,4.8,1.,4.8,0.,4.8,0.,4.8
1979-07-30 21:19:05.310 ,5,0,8.,4.8,0.,4.8,1.,4.8,0.,4.8
1979-07-30 21:19:10.110 ,4,0,6.,4.8,0.,4.8,0.,4.8,0.,4.8
1979-07-30 21:19:14.910 ,4,0,2.,4.8,0.,4.8,1.,4.8,0.,4.8
1979-07-30 21:19:19.710 ,4,0,8.,4.8,0.,4.8,0.,4.8,0.,4.8
1979-07-30 21:19:24.510 ,4,0,7.,4.8,0.,4.8,0.,4.8,0.,4.8
1979-07-30 21:19:29.310 ,4,0,3.,4.8,0.,4.8,0.,4.8,0.,4.8
1979-07-30 21:19:34.110 ,4,0,5.,4.8,0.,4.8,0.,4.8,0.,4.8
1979-07-30 21:19:38.910 ,4,0,7.,4.8,0.,4.8,0.,4.8,0.,4.8
1979-07-30 21:19:43.710 ,4,0,8.,4.8,0.,4.8,0.,4.8,0.,4.8
1979-07-30 21:19:48.510 ,4,0,8.,4.8,0.,4.8,0.,4.8,0.,4.8
1979-07-30 21:19:53.310 ,4,0,6.,4.8,0.,4.8,0.,4.8,0.,4.8
1979-07-30 21:19:58.110 ,3,0,1.,4.8,0.,4.8,0.,4.8,0.,4.8
1979-07-30 21:20:02.910 ,3,0,4.,4.8,0.,4.8,0.,4.8,0.,4.8
1979-07-30 21:20:07.710 ,3,0,3.,4.8,0.,4.8,0.,4.8,0.,4.8
1979-07-30 21:20:12.510 ,3,0,6.,4.8,0.,4.8,1.,4.8,0.,4.8
1979-07-30 21:20:17.310 ,3,0,5.,4.8,0.,4.8,0.,4.8,0.,4.8
1979-07-30 21:20:22.110 ,3,0,4.,4.8,0.,4.8,0.,4.8,0.,4.8
1979-07-30 21:20:26.910 ,3,0,5.,4.8,0.,4.8,0.,4.8,0.,4.8
1979-07-30 21:20:31.710 ,3,0,5.,4.8,0.,4.8,0.,4.8,0.,4.8
1979-07-30 21:20:36.510 ,3,0,5.,4.8,0.,4.8,0.,4.8,0.,4.8
1979-07-30 21:20:41.310 ,3,0,2.,4.8,0.,4.8,0.,4.8,0.,4.8
1979-07-30 21:20:46.110 ,2,0,1.,4.8,0.,4.8,0.,4.8,0.,4.8
1979-07-30 21:20:50.910 ,2,0,4.,4.8,0.,4.8,0.,4.8,0.,4.8
1979-07-30 21:20:55.710 ,2,0,6.,4.8,0.,4.8,0.,4.8,0.,4.8
1979-07-30 21:21:00.510 ,2,0,6.,4.8,0.,4.8,0.,4.8,0.,4.8
1979-07-30 21:21:05.310 ,2,0,5.,4.8,0.,4.8,0.,4.8,0.,4.8
1979-07-30 21:21:10.110 ,2,0,6.,4.8,0.,4.8,1.,4.8,0.,4.8
1979-07-30 21:21:14.910 ,2,0,4.,4.8,0.,4.8,0.,4.8,0.,4.8
1979-07-30 21:21:19.710 ,2,0,4.,4.8,0.,4.8,0.,4.8,0.,4.8
1979-07-30 21:21:24.510 ,2,0,5.,4.8,0.,4.8,0.,4.8,0.,4.8
1979-07-30 21:21:29.310 ,2,0,4.,4.8,0.,4.8,0.,4.8,0.,4.8
1979-07-30 21:21:34.110 ,1,0,6.,4.8,0.,4.8,0.,4.8,0.,4.8
1979-07-30 21:21:38.910 ,1,0,3.,4.8,0.,4.8,0.,4.8,0.,4.8
1979-07-30 21:21:43.710 ,1,0,3.,4.8,0.,4.8,0.,4.8,0.,4.8
1979-07-30 21:21:48.510 ,1,0,10.,4.8,0.,4.8,0.,4.8,0.,4.8
1979-07-30 21:21:53.310 ,1,0,3.,4.8,0.,4.8,0.,4.8,0.,4.8
1979-07-30 21:21:58.110 ,1,0,4.,4.8,0.,4.8,0.,4.8,0.,4.8
1979-07-30 21:22:02.910 ,1,0,4.,4.8,0.,4.8,0.,4.8,0.,4.8
1979-07-30 21:22:07.710 ,1,0,7.,4.8,0.,4.8,0.,4.8,0.,4.8
1979-07-30 21:22:12.510 ,1,0,4.,4.8,0.,4.8,0.,4.8,0.,4.8
1979-07-30 21:22:17.310 ,1,0,6.,4.8,0.,4.8,0.,4.8,0.,4.8
1979-07-30 21:22:22.110 ,0,0,10.,4.8,1.,4.8,0.,4.8,0.,4.8
1979-07-30 21:22:26.910 ,0,0,6.,4.8,0.,4.8,0.,4.8,0.,4.8
1979-07-30 21:22:31.710 ,0,0,6.,4.8,0.,4.8,0.,4.8,0.,4.8
1979-07-30 21:22:36.510 ,0,0,3.,4.8,0.,4.8,1.,4.8,0.,4.8
1979-07-30 21:22:41.310 ,0,0,1.,4.8,0.,4.8,0.,4.8,0.,4.8
1979-07-30 21:22:46.110 ,0,0,3.,4.8,0.,4.8,0.,4.8,0.,4.8
1979-07-30 21:22:50.910 ,0,0,4.,4.8,0.,4.8,0.,4.8,0.,4.8
1979-07-30 21:22:55.710 ,0,0,7.,4.8,1.,4.8,0.,4.8,0.,4.8
1979-07-30 21:23:00.510 ,0,0,7.,4.8,0.,4.8,0.,4.8,0.,4.8
1979-07-30 21:23:05.310 ,0,0,4.,4.8,0.,4.8,0.,4.8,0.,4.8
1979-07-30 21:23:10.110 ,0,0,9.,4.8,0.,4.8,0.,4.8,0.,4.8
1979-07-30 21:23:14.910 ,0,0,6.,4.8,0.,4.8,0.,4.8,0.,4.8
1979-07-30 21:23:19.710 ,0,0,4.,4.8,0.,4.8,0.,4.8,0.,4.8
1979-07-30 21:23:24.510 ,0,0,2.,4.8,0.,4.8,1.,4.8,0.,4.8
1979-07-30 21:23:29.310 ,0,0,7.,4.8,0.,4.8,0.,4.8,0.,4.8
1979-07-30 21:23:34.110 ,0,0,4.,4.8,0.,4.8,0.,4.8,0.,4.8
1979-07-30 21:23:38.910 ,0,0,4.,4.8,0.,4.8,0.,4.8,0.,4.8
1979-07-30 21:23:43.710 ,0,0,1.,4.8,0.,4.8,0.,4.8,0.,4.8
1979-07-30 21:23:48.510 ,0,0,4.,4.8,0.,4.8,1.,4.8,0.,4.8
1979-07-30 21:23:53.310 ,0,0,8.,4.8,0.,4.8,0.,4.8,0.,4.8
1979-07-30 21:23:58.110 ,1,0,2.,4.8,0.,4.8,0.,4.8,0.,4.8
1979-07-30 21:24:02.910 ,1,0,4.,4.8,0.,4.8,0.,4.8,0.,4.8
1979-07-30 21:24:07.710 ,1,0,2.,4.8,0.,4.8,0.,4.8,0.,4.8
1979-07-30 21:24:12.510 ,1,0,5.,4.8,0.,4.8,0.,4.8,0.,4.8
1979-07-30 21:24:17.310 ,1,0,2.,4.8,0.,4.8,0.,4.8,0.,4.8
1979-07-30 21:24:22.110 ,1,0,3.,4.8,0.,4.8,0.,4.8,0.,4.8
1979-07-30 21:24:26.910 ,1,0,8.,4.8,0.,4.8,0.,4.8,0.,4.8
1979-07-30 21:24:31.710 ,1,0,1.,4.8,0.,4.8,0.,4.8,0.,4.8
1979-07-30 21:24:36.510 ,1,0,4.,4.8,0.,4.8,1.,4.8,0.,4.8
1979-07-30 21:24:41.310 ,1,0,2.,4.8,0.,4.8,0.,4.8,0.,4.8
1979-07-30 21:24:46.110 ,2,0,3.,4.8,0.,4.8,0.,4.8,0.,4.8
1979-07-30 21:24:50.910 ,2,0,1.,4.8,0.,4.8,1.,4.8,0.,4.8
1979-07-30 21:24:55.710 ,2,0,6.,4.8,0.,4.8,0.,4.8,0.,4.8
1979-07-30 21:25:00.510 ,2,0,3.,4.8,0.,4.8,0.,4.8,0.,4.8
1979-07-30 21:25:05.310 ,2,0,2.,4.8,0.,4.8,0.,4.8,0.,4.8
1979-07-30 21:25:10.110 ,2,0,6.,4.8,0.,4.8,0.,4.8,0.,4.8
1979-07-30 21:25:14.910 ,2,0,2.,4.8,0.,4.8,0.,4.8,0.,4.8
1979-07-30 21:25:19.710 ,2,0,3.,4.8,0.,4.8,0.,4.8,0.,4.8
1979-07-30 21:25:24.510 ,2,0,1.,4.8,0.,4.8,0.,4.8,0.,4.8
1979-07-30 21:25:29.310 ,2,0,3.,4.8,0.,4.8,0.,4.8,0.,4.8
1979-07-30 21:25:34.110 ,3,0,0.,4.8,0.,4.8,0.,4.8,0.,4.8
1979-07-30 21:25:38.910 ,3,0,3.,4.8,1.,4.8,0.,4.8,0.,4.8
1979-07-30 21:25:43.710 ,3,0,5.,4.8,0.,4.8,0.,4.8,0.,4.8
1979-07-30 21:25:48.510 ,3,0,4.,4.8,0.,4.8,0.,4.8,0.,4.8
1979-07-30 21:25:53.310 ,3,0,6.,4.8,0.,4.8,0.,4.8,0.,4.8
1979-07-30 21:25:58.110 ,3,0,2.,4.8,0.,4.8,0.,4.8,0.,4.8
1979-07-30 21:26:02.910 ,3,0,10.,4.8,0.,4.8,0.,4.8,0.,4.8
1979-07-30 21:26:07.710 ,3,0,7.,4.8,0.,4.8,1.,4.8,0.,4.8
1979-07-30 21:26:12.510 ,3,0,6.,4.8,0.,4.8,0.,4.8,0.,4.8
1979-07-30 21:26:17.310 ,3,0,3.,4.8,0.,4.8,0.,4.8,0.,4.8
1979-07-30 21:26:22.110 ,4,0,4.,4.8,1.,4.8,1.,4.8,0.,4.8
1979-07-30 21:26:26.910 ,4,0,7.,4.8,0.,4.8,1.,4.8,0.,4.8
1979-07-30 21:26:31.710 ,4,0,6.,4.8,0.,4.8,0.,4.8,0.,4.8
1979-07-30 21:26:36.510 ,4,0,3.,4.8,0.,4.8,0.,4.8,0.,4.8
1979-07-30 21:26:41.310 ,4,0,8.,4.8,0.,4.8,1.,4.8,0.,4.8
1979-07-30 21:26:46.110 ,4,0,1.,4.8,0.,4.8,0.,4.8,0.,4.8
1979-07-30 21:26:50.910 ,4,0,4.,4.8,0.,4.8,1.,4.8,0.,4.8
1979-07-30 21:26:55.710 ,4,0,5.,4.8,0.,4.8,0.,4.8,0.,4.8
1979-07-30 21:27:00.510 ,4,0,7.,4.8,0.,4.8,0.,4.8,0.,4.8
1979-07-30 21:27:05.310 ,4,0,6.,4.8,0.,4.8,0.,4.8,0.,4.8
1979-07-30 21:27:10.110 ,5,0,4.,4.8,0.,4.8,1.,4.8,0.,4.8
1979-07-30 21:27:14.910 ,5,0,6.,4.8,0.,4.8,0.,4.8,0.,4.8
1979-07-30 21:27:19.710 ,5,0,6.,4.8,0.,4.8,0.,4.8,0.,4.8
1979-07-30 21:27:24.510 ,5,0,3.,4.8,0.,4.8,0.,4.8,0.,4.8
1979-07-30 21:27:29.310 ,5,0,7.,4.8,0.,4.8,0.,4.8,0.,4.8
1979-07-30 21:27:34.110 ,5,0,6.,4.8,0.,4.8,0.,4.8,0.,4.8
1979-07-30 21:27:38.910 ,5,0,8.,4.8,0.,4.8,0.,4.8,0.,4.8
1979-07-30 21:27:43.710 ,5,0,4.,4.8,0.,4.8,0.,4.8,0.,4.8
1979-07-30 21:27:48.510 ,5,0,1.,4.8,0.,4.8,0.,4.8,0.,4.8
1979-07-30 21:27:53.310 ,5,0,4.,4.8,1.,4.8,0.,4.8,0.,4.8
1979-07-30 21:27:58.110 ,6,0,2.,4.8,0.,4.8,0.,4.8,0.,4.8
1979-07-30 21:28:02.910 ,6,0,7.,4.8,0.,4.8,0.,4.8,0.,4.8
1979-07-30 21:28:07.710 ,6,0,6.,4.8,0.,4.8,0.,4.8,0.,4.8
1979-07-30 21:28:12.510 ,6,0,5.,4.8,0.,4.8,0.,4.8,0.,4.8
1979-07-30 21:28:17.310 ,6,0,4.,4.8,0.,4.8,0.,4.8,0.,4.8
1979-07-30 21:28:22.110 ,6,0,4.,4.8,0.,4.8,0.,4.8,0.,4.8
1979-07-30 21:28:26.910 ,6,0,3.,4.8,0.,4.8,0.,4.8,0.,4.8
1979-07-30 21:28:31.710 ,6,0,5.,4.8,0.,4.8,0.,4.8,0.,4.8
1979-07-30 21:28:36.510 ,6,0,7.,4.8,0.,4.8,0.,4.8,0.,4.8
1979-07-30 21:28:41.310 ,6,0,3.,4.8,0.,4.8,0.,4.8,0.,4.8
1979-07-30 21:28:46.110 ,7,0,4.,4.8,0.,4.8,1.,4.8,0.,4.8
1979-07-30 21:28:50.910 ,7,0,3.,4.8,0.,4.8,0.,4.8,0.,4.8
1979-07-30 21:28:55.710 ,7,0,2.,4.8,0.,4.8,0.,4.8,0.,4.8
1979-07-30 21:29:00.510 ,7,0,5.,4.8,0.,4.8,0.,4.8,0.,4.8
1979-07-30 21:29:05.310 ,7,0,0.,4.8,0.,4.8,0.,4.8,0.,4.8
1979-07-30 21:29:10.110 ,7,0,2.,4.8,0.,4.8,0.,4.8,0.,4.8
1979-07-30 21:29:14.910 ,7,0,1.,4.8,0.,4.8,0.,4.8,0.,4.8
1979-07-30 21:29:19.710 ,7,0,5.,4.8,0.,4.8,0.,4.8,0.,4.8
1979-07-30 21:29:24.510 ,7,0,2.,4.8,0.,4.8,0.,4.8,0.,4.8
1979-07-30 21:29:29.310 ,7,0,2.,4.8,0.,4.8,0.,4.8,0.,4.8
1979-07-30 21:29:34.110 ,7,0,3.,4.8,0.,4.8,0.,4.8,0.,4.8
1979-07-30 21:29:38.910 ,7,0,2.,4.8,0.,4.8,0.,4.8,0.,4.8
1979-07-30 21:29:43.710 ,7,0,0.,4.8,0.,4.8,0.,4.8,0.,4.8
1979-07-30 21:29:48.510 ,7,0,3.,4.8,0.,4.8,1.,4.8,0.,4.8
1979-07-30 21:29:53.310 ,7,0,4.,4.8,0.,4.8,0.,4.8,0.,4.8
1979-07-30 21:29:58.110 ,7,0,6.,4.8,0.,4.8,0.,4.8,0.,4.8
1979-07-30 21:30:02.910 ,7,0,1.,4.8,0.,4.8,0.,4.8,0.,4.8
1979-07-30 21:30:07.710 ,7,0,1.,4.8,0.,4.8,0.,4.8,0.,4.8
1979-07-30 21:30:12.510 ,7,0,2.,4.8,0.,4.8,0.,4.8,0.,4.8
1979-07-30 21:30:17.310 ,7,0,4.,4.8,0.,4.8,0.,4.8,0.,4.8
1979-07-30 21:30:22.110 ,6,0,1.,4.8,0.,4.8,0.,4.8,0.,4.8
1979-07-30 21:30:26.910 ,6,0,3.,4.8,0.,4.8,0.,4.8,0.,4.8
1979-07-30 21:30:31.710 ,6,0,3.,4.8,0.,4.8,0.,4.8,0.,4.8
1979-07-30 21:30:36.510 ,6,0,4.,4.8,0.,4.8,0.,4.8,0.,4.8
1979-07-30 21:30:41.310 ,6,0,4.,4.8,0.,4.8,1.,4.8,0.,4.8
1979-07-30 21:30:46.110 ,6,0,2.,4.8,0.,4.8,0.,4.8,0.,4.8
1979-07-30 21:30:50.910 ,6,0,5.,4.8,0.,4.8,1.,4.8,0.,4.8
1979-07-30 21:30:55.710 ,6,0,5.,4.8,0.,4.8,0.,4.8,0.,4.8
1979-07-30 21:31:00.510 ,6,0,5.,4.8,0.,4.8,1.,4.8,0.,4.8
1979-07-30 21:31:05.310 ,6,0,0.,4.8,0.,4.8,1.,4.8,0.,4.8
1979-07-30 21:31:10.110 ,5,0,8.,4.8,0.,4.8,0.,4.8,0.,4.8
1979-07-30 21:31:14.910 ,5,0,7.,4.8,0.,4.8,0.,4.8,0.,4.8
1979-07-30 21:31:19.710 ,5,0,3.,4.8,0.,4.8,0.,4.8,0.,4.8
1979-07-30 21:31:24.510 ,5,0,7.,4.8,0.,4.8,0.,4.8,0.,4.8
1979-07-30 21:31:29.310 ,5,0,6.,4.8,0.,4.8,0.,4.8,0.,4.8
1979-07-30 21:31:34.110 ,5,0,1.,4.8,0.,4.8,0.,4.8,0.,4.8
1979-07-30 21:31:38.910 ,5,0,5.,4.8,1.,4.8,0.,4.8,0.,4.8
1979-07-30 21:31:43.710 ,5,0,1.,4.8,0.,4.8,0.,4.8,0.,4.8
1979-07-30 21:31:48.510 ,5,0,9.,4.8,1.,4.8,0.,4.8,0.,4.8
1979-07-30 21:31:53.310 ,5,0,6.,4.8,0.,4.8,0.,4.8,0.,4.8
1979-07-30 21:31:58.110 ,4,0,4.,4.8,0.,4.8,0.,4.8,0.,4.8
1979-07-30 21:32:02.910 ,4,0,4.,4.8,0.,4.8,0.,4.8,0.,4.8
1979-07-30 21:32:07.710 ,4,0,4.,4.8,0.,4.8,1.,4.8,0.,4.8
1979-07-30 21:32:12.510 ,4,0,6.,4.8,0.,4.8,0.,4.8,0.,4.8
1979-07-30 21:32:17.310 ,4,0,5.,4.8,0.,4.8,0.,4.8,0.,4.8
1979-07-30 21:32:22.110 ,4,0,5.,4.8,0.,4.8,0.,4.8,0.,4.8
1979-07-30 21:32:26.910 ,4,0,7.,4.8,0.,4.8,0.,4.8,0.,4.8
1979-07-30 21:32:31.710 ,4,0,1.,4.8,0.,4.8,0.,4.8,0.,4.8
1979-07-30 21:32:36.510 ,4,0,6.,4.8,0.,4.8,0.,4.8,0.,4.8
1979-07-30 21:32:41.310 ,4,0,5.,4.8,0.,4.8,0.,4.8,0.,4.8
1979-07-30 21:32:46.110 ,3,0,9.,4.8,0.,4.8,0.,4.8,0.,4.8
1979-07-30 21:32:50.910 ,3,0,5.,4.8,0.,4.8,0.,4.8,0.,4.8
1979-07-30 21:32:55.710 ,3,0,5.,4.8,0.,4.8,0.,4.8,0.,4.8
1979-07-30 21:33:00.510 ,3,0,1.,4.8,0.,4.8,0.,4.8,0.,4.8
1979-07-30 21:33:05.310 ,3,0,4.,4.8,0.,4.8,0.,4.8,0.,4.8
1979-07-30 21:33:10.110 ,3,0,3.,4.8,0.,4.8,0.,4.8,0.,4.8
1979-07-30 21:33:14.910 ,3,0,6.,4.8,0.,4.8,0.,4.8,0.,4.8
1979-07-30 21:33:19.710 ,3,0,4.,4.8,0.,4.8,0.,4.8,0.,4.8
1979-07-30 21:33:24.510 ,3,0,5.,4.8,0.,4.8,0.,4.8,0.,4.8
1979-07-30 21:33:29.310 ,3,0,6.,4.8,0.,4.8,0.,4.8,0.,4.8
1979-07-30 21:33:34.110 ,2,0,5.,4.8,0.,4.8,0.,4.8,0.,4.8
1979-07-30 21:33:38.910 ,2,0,1.,4.8,0.,4.8,0.,4.8,0.,4.8
1979-07-30 21:33:43.710 ,2,0,3.,4.8,0.,4.8,0.,4.8,0.,4.8
1979-07-30 21:33:48.510 ,2,0,4.,4.8,0.,4.8,0.,4.8,0.,4.8
1979-07-30 21:33:53.310 ,2,0,4.,4.8,0.,4.8,0.,4.8,0.,4.8
1979-07-30 21:33:58.110 ,2,0,1.,4.8,0.,4.8,0.,4.8,0.,4.8
1979-07-30 21:34:02.910 ,2,0,5.,4.8,0.,4.8,1.,4.8,0.,4.8
1979-07-30 21:34:07.710 ,2,0,7.,4.8,0.,4.8,0.,4.8,0.,4.8
1979-07-30 21:34:12.510 ,2,0,6.,4.8,0.,4.8,1.,4.8,0.,4.8
1979-07-30 21:34:17.310 ,2,0,5.,4.8,0.,4.8,0.,4.8,0.,4.8
1979-07-30 21:34:22.110 ,1,0,7.,4.8,0.,4.8,0.,4.8,0.,4.8
1979-07-30 21:34:26.910 ,1,0,1.,4.8,0.,4.8,0.,4.8,0.,4.8
1979-07-30 21:34:31.710 ,1,0,6.,4.8,0.,4.8,0.,4.8,0.,4.8
1979-07-30 21:34:36.510 ,1,0,5.,4.8,0.,4.8,0.,4.8,0.,4.8
1979-07-30 21:34:41.310 ,1,0,3.,4.8,0.,4.8,0.,4.8,0.,4.8
1979-07-30 21:34:46.110 ,1,0,4.,4.8,0.,4.8,0.,4.8,0.,4.8
1979-07-30 21:34:50.910 ,1,0,4.,4.8,0.,4.8,0.,4.8,0.,4.8
1979-07-30 21:34:55.710 ,1,0,5.,4.8,0.,4.8,0.,4.8,0.,4.8
1979-07-30 21:35:00.510 ,1,0,4.,4.8,0.,4.8,0.,4.8,0.,4.8
1979-07-30 21:35:05.310 ,1,0,5.,4.8,0.,4.8,0.,4.8,0.,4.8
1979-07-30 21:35:10.110 ,0,0,1.,4.8,0.,4.8,0.,4.8,0.,4.8
1979-07-30 21:35:14.910 ,0,0,4.,4.8,0.,4.8,0.,4.8,0.,4.8
1979-07-30 21:35:19.710 ,0,0,3.,4.8,0.,4.8,0.,4.8,0.,4.8
1979-07-30 21:35:24.510 ,0,0,5.,4.8,0.,4.8,0.,4.8,0.,4.8
1979-07-30 21:35:29.310 ,0,0,5.,4.8,0.,4.8,0.,4.8,0.,4.8